TimeCDT,TemperatureF,Dew PointF,Humidity,Sea Level PressureIn,VisibilityMPH,Wind Direction,Wind SpeedMPH,Gust SpeedMPH,PrecipitationIn,Events,Conditions,WindDirDegrees,DateUTC
12:51 AM,72.0,66.0,81,29.92,10.0,SSE,16.1,20.7,N/A,,Overcast,150,2013-05-09 05:51:00
1:51 AM,72.0,66.0,81,29.89,10.0,SSE,13.8,-,N/A,,Overcast,160,2013-05-09 06:51:00
2:51 AM,72.0,66.0,81,29.87,10.0,South,13.8,20.7,N/A,,Overcast,170,2013-05-09 07:51:00
3:51 AM,71.1,66.0,84,29.88,10.0,SSE,11.5,-,N/A,,Overcast,160,2013-05-09 08:51:00
4:30 AM,71.6,66.2,83,29.92,10.0,SSE,9.2,-,N/A,,Overcast,150,2013-05-09 09:30:00
4:51 AM,71.1,66.9,87,29.88,10.0,SSE,8.1,-,N/A,,Overcast,150,2013-05-09 09:51:00
5:38 AM,71.6,66.2,83,29.92,8.0,SE,8.1,-,N/A,,Overcast,140,2013-05-09 10:38:00
5:43 AM,71.6,66.2,83,29.92,8.0,SSE,6.9,-,0.00,,Light Drizzle,150,2013-05-09 10:43:00
5:51 AM,71.1,66.9,87,29.88,10.0,SSE,9.2,-,0.00,,Light Drizzle,160,2013-05-09 10:51:00
6:51 AM,70.0,68.0,93,29.88,8.0,SE,8.1,-,0.00,,Light Drizzle,130,2013-05-09 11:51:00
7:16 AM,71.6,68.0,88,29.94,5.0,SSE,9.2,-,0.00,,Overcast,150,2013-05-09 12:16:00
7:26 AM,69.8,68.0,94,29.94,2.0,SE,10.4,-,0.00,,Drizzle,140,2013-05-09 12:26:00
7:51 AM,70.0,69.1,97,29.90,2.0,SE,6.9,-,0.00,,Light Drizzle,140,2013-05-09 12:51:00
8:07 AM,71.6,69.8,94,29.95,4.0,SE,6.9,-,0.00,,Overcast,140,2013-05-09 13:07:00
8:51 AM,72.0,69.1,91,29.90,6.0,SSE,11.5,-,0.00,,Overcast,150,2013-05-09 13:51:00
9:51 AM,73.9,69.1,85,29.90,7.0,SSE,11.5,-,N/A,,Overcast,150,2013-05-09 14:51:00
10:40 AM,75.2,69.8,83,29.94,5.0,SSE,15.0,-,N/A,,Overcast,160,2013-05-09 15:40:00
10:51 AM,75.9,69.1,79,29.89,5.0,SSE,17.3,25.3,N/A,,Overcast,150,2013-05-09 15:51:00
11:51 AM,77.0,69.1,76,29.88,6.0,SSE,18.4,21.9,N/A,,Haze,160,2013-05-09 16:51:00
12:51 PM,77.0,68.0,74,29.89,7.0,South,10.4,-,N/A,,Overcast,170,2013-05-09 17:51:00
1:51 PM,78.1,69.1,74,29.87,7.0,SSE,9.2,-,N/A,,Overcast,160,2013-05-09 18:51:00
2:51 PM,78.1,69.1,74,29.86,7.0,SSW,6.9,-,N/A,,Overcast,200,2013-05-09 19:51:00
3:51 PM,78.1,69.1,74,29.84,6.0,South,3.5,-,N/A,,Haze,190,2013-05-09 20:51:00
4:51 PM,79.0,70.0,74,29.81,6.0,East,3.5,-,0.00,,Haze,80,2013-05-09 21:51:00
5:51 PM,80.1,70.0,71,29.80,6.0,South,3.5,-,N/A,,Haze,170,2013-05-09 22:51:00
6:51 PM,80.1,70.0,71,29.79,6.0,ESE,3.5,-,N/A,,Haze,110,2013-05-09 23:51:00
7:30 PM,80.6,69.8,70,29.85,6.0,East,4.6,-,N/A,,Haze,80,2013-05-10 00:30:00
7:51 PM,79.0,70.0,74,29.79,6.0,ENE,10.4,-,N/A,,Haze,70,2013-05-10 00:51:00
8:51 PM,77.0,71.6,83,29.85,7.0,East,6.9,-,N/A,,Overcast,80,2013-05-10 01:51:00
9:51 PM,73.9,68.0,82,29.84,9.0,NE,10.4,-,N/A,,Overcast,40,2013-05-10 02:51:00
10:51 PM,73.9,66.9,79,29.93,10.0,NW,13.8,23.0,N/A,,Overcast,320,2013-05-10 03:51:00
11:07 PM,71.6,60.8,69,29.97,10.0,NNE,20.7,32.2,0.00,Rain-Thunderstorm,Light Thunderstorms and Rain,30,2013-05-10 04:07:00
11:10 PM,69.8,60.8,73,29.97,7.0,NE,16.1,32.2,N/A,Rain-Thunderstorm,Light Thunderstorms and Rain,40,2013-05-10 04:10:00
11:37 PM,64.4,60.8,88,29.95,10.0,ENE,10.4,20.7,0.05,,Mostly Cloudy,70,2013-05-10 04:37:00
11:51 PM,64.0,61.0,90,29.89,10.0,East,9.2,-,0.05,,Scattered Clouds,90,2013-05-10 04:51:00